• în România
  • Lista ţărilor
  • Pe 7 zile
  • Temperatura apei
  • Hartă satelitară
  • Meteo pe hartă
  • Widget-uri
  • user-avatar
    Intrare

    Meteo pe oră la Split

    Astăzi, 16 Decembrie, Sâmbătă

    Timp Temperatura Precipitaţii Vânt Presiune Umiditate
    00:00 +11°C° 3,6 mm 9 m/s 746 mmHg 91%
    01:00 +11°C° 0 mm 7 m/s 747 mmHg 93%
    02:00 +11°C° 1,8 mm 7 m/s 747 mmHg 92%
    03:00 +10°C° 1,8 mm 7 m/s 748 mmHg 92%
    04:00 +10°C° 1,8 mm 7 m/s 748 mmHg 91%
    05:00 +10°C° 0,3 mm 6 m/s 749 mmHg 89%
    06:00 +9°C° 0,3 mm 5 m/s 749 mmHg 87%
    07:00 +10°C° 0,3 mm 4 m/s 750 mmHg 84%
    08:00 +10°C° 0 mm 4 m/s 751 mmHg 82%
    09:00 +10°C° 0 mm 4 m/s 751 mmHg 79%
    10:00 +11°C° 0 mm 3 m/s 752 mmHg 76%
    11:00 +11°C° 0 mm 3 m/s 752 mmHg 75%
    12:00 +11°C° 0 mm 3 m/s 753 mmHg 73%
    13:00 +12°C° 0 mm 2 m/s 753 mmHg 71%
    14:00 +12°C° 0 mm 2 m/s 753 mmHg 73%
    15:00 +11°C° 0 mm 1 m/s 753 mmHg 75%
    16:00 +11°C° 0 mm 1 m/s 753 mmHg 76%
    17:00 +10°C° 0,1 mm 2 m/s 754 mmHg 77%
    18:00 +9°C° 0,1 mm 2 m/s 754 mmHg 77%
    19:00 +9°C° 0,1 mm 3 m/s 754 mmHg 77%
    20:00 +9°C° 1 mm 3 m/s 754 mmHg 78%
    21:00 +9°C° 1 mm 3 m/s 755 mmHg 79%
    22:00 +8°C° 1 mm 4 m/s 755 mmHg 80%
    23:00 +8°C° 1,1 mm 4 m/s 755 mmHg 80%

    Mâine, 17 Decembrie, Duminică

    Timp Temperatura Precipitaţii Vânt Presiune Umiditate
    00:00 +7°C° 1,1 mm 4 m/s 755 mmHg 80%
    01:00 +7°C° 1,1 mm 4 m/s 756 mmHg 80%
    02:00 +7°C° 0,5 mm 5 m/s 756 mmHg 78%
    03:00 +7°C° 0,5 mm 5 m/s 756 mmHg 77%
    04:00 +7°C° 0,5 mm 5 m/s 756 mmHg 76%
    05:00 +5°C° 0,3 mm 6 m/s 757 mmHg 74%
    06:00 +5°C° 0,3 mm 7 m/s 757 mmHg 73%
    07:00 +5°C° 0,3 mm 7 m/s 758 mmHg 72%
    08:00 +5°C° 0,1 mm 8 m/s 758 mmHg 70%
    09:00 +5°C° 0,1 mm 8 m/s 759 mmHg 69%
    10:00 +5°C° 0,1 mm 9 m/s 760 mmHg 68%
    11:00 +5°C° 0,1 mm 8 m/s 760 mmHg 67%
    12:00 +5°C° 0,1 mm 8 m/s 760 mmHg 66%
    13:00 +5°C° 0,1 mm 7 m/s 760 mmHg 65%
    14:00 +5°C° 0 mm 7 m/s 761 mmHg 66%
    15:00 +4°C° 0 mm 7 m/s 761 mmHg 67%
    16:00 +4°C° 0 mm 6 m/s 761 mmHg 67%
    17:00 +3°C° 0 mm 6 m/s 762 mmHg 68%
    18:00 +3°C° 0 mm 6 m/s 762 mmHg 69%
    19:00 +3°C° 0 mm 6 m/s 763 mmHg 70%
    20:00 +3°C° 0 mm 6 m/s 764 mmHg 70%
    21:00 +2°C° 0 mm 6 m/s 764 mmHg 70%
    22:00 +2°C° 0 mm 6 m/s 765 mmHg 70%
    23:00 +2°C° 0 mm 6 m/s 765 mmHg 70%

    Poimâine, 18 Decembrie, Luni

    Timp Temperatura Precipitaţii Vânt Presiune Umiditate
    00:00 +2°C° 0 mm 6 m/s 765 mmHg 70%
    01:00 +2°C° 0 mm 7 m/s 765 mmHg 70%
    02:00 +2°C° 0 mm 7 m/s 765 mmHg 70%
    03:00 +2°C° 0 mm 6 m/s 765 mmHg 70%
    04:00 +2°C° 0 mm 6 m/s 765 mmHg 70%
    05:00 +2°C° 0 mm 6 m/s 766 mmHg 70%
    06:00 +2°C° 0 mm 6 m/s 766 mmHg 69%
    07:00 +1°C° 0 mm 6 m/s 767 mmHg 69%
    08:00 +2°C° 0 mm 6 m/s 767 mmHg 66%
    09:00 +3°C° 0 mm 6 m/s 767 mmHg 63%
    10:00 +3°C° 0 mm 6 m/s 767 mmHg 59%
    11:00 +5°C° 0 mm 5 m/s 767 mmHg 57%
    12:00 +5°C° 0 mm 5 m/s 766 mmHg 54%
    13:00 +6°C° 0 mm 4 m/s 766 mmHg 52%
    14:00 +5°C° 0 mm 4 m/s 766 mmHg 55%
    15:00 +4°C° 0 mm 4 m/s 766 mmHg 57%
    16:00 +4°C° 0 mm 3 m/s 766 mmHg 60%
    17:00 +3°C° 0 mm 3 m/s 766 mmHg 61%
    18:00 +3°C° 0 mm 3 m/s 767 mmHg 63%
    19:00 +2°C° 0 mm 3 m/s 767 mmHg 64%
    20:00 +2°C° 0 mm 3 m/s 767 mmHg 64%
    21:00 +2°C° 0 mm 3 m/s 768 mmHg 65%
    22:00 +3°C° 0 mm 2 m/s 768 mmHg 65%
    23:00 +2°C° 0 mm 3 m/s 769 mmHg 64%

    19 Decembrie, Marţi

    Timp Temperatura Precipitaţii Vânt Presiune Umiditate
    00:00 +2°C° 0 mm 3 m/s 769 mmHg 64%
    01:00 +1°C° 0 mm 3 m/s 769 mmHg 63%
    02:00 0°C° 0 mm 4 m/s 769 mmHg 64%
    03:00 0°C° 0 mm 4 m/s 770 mmHg 64%
    04:00 0°C° 0 mm 4 m/s 770 mmHg 64%
    05:00 0°C° 0 mm 4 m/s 770 mmHg 65%
    06:00 0°C° 0 mm 4 m/s 771 mmHg 66%
    07:00 0°C° 0 mm 4 m/s 771 mmHg 66%
    08:00 0°C° 0 mm 4 m/s 772 mmHg 64%
    09:00 +1°C° 0 mm 4 m/s 772 mmHg 61%
    10:00 +3°C° 0 mm 4 m/s 773 mmHg 59%
    11:00 +3°C° 0 mm 4 m/s 773 mmHg 56%
    12:00 +4°C° 0 mm 3 m/s 772 mmHg 54%
    13:00 +4°C° 0 mm 3 m/s 772 mmHg 52%
    14:00 +4°C° 0 mm 3 m/s 772 mmHg 55%
    15:00 +3°C° 0 mm 3 m/s 772 mmHg 58%
    16:00 +3°C° 0 mm 3 m/s 772 mmHg 61%
    17:00 +2°C° 0 mm 3 m/s 773 mmHg 63%
    18:00 +2°C° 0 mm 3 m/s 773 mmHg 66%
    19:00 +1°C° 0 mm 3 m/s 773 mmHg 68%
    20:00 +1°C° 0 mm 3 m/s 774 mmHg 68%
    21:00 +1°C° 0 mm 3 m/s 774 mmHg 69%
    22:00 0°C° 0 mm 3 m/s 774 mmHg 69%
    23:00 0°C° 0 mm 3 m/s 775 mmHg 68%

    20 Decembrie, Miercuri

    Timp Temperatura Precipitaţii Vânt Presiune Umiditate
    00:00 0°C° 0 mm 3 m/s 775 mmHg 68%
    01:00 0°C° 0 mm 3 m/s 775 mmHg 67%
    02:00 0°C° 0 mm 3 m/s 775 mmHg 67%
    03:00 0°C° 0 mm 3 m/s 775 mmHg 67%
    04:00 0°C° 0 mm 3 m/s 774 mmHg 66%
    05:00 -1°C° 0 mm 3 m/s 775 mmHg 66%
    06:00 -1°C° 0 mm 3 m/s 775 mmHg 65%
    07:00 -1°C° 0 mm 3 m/s 775 mmHg 65%
    08:00 0°C° 0 mm 3 m/s 775 mmHg 61%
    09:00 +1°C° 0 mm 3 m/s 775 mmHg 57%
    10:00 +3°C° 0 mm 2 m/s 775 mmHg 53%
    11:00 +4°C° 0 mm 2 m/s 775 mmHg 50%
    12:00 +5°C° 0 mm 2 m/s 775 mmHg 47%
    13:00 +6°C° 0 mm 2 m/s 774 mmHg 43%
    14:00 +5°C° 0 mm 2 m/s 774 mmHg 47%
    15:00 +4°C° 0 mm 2 m/s 774 mmHg 51%
    16:00 +4°C° 0 mm 2 m/s 774 mmHg 55%
    17:00 +3°C° 0 mm 2 m/s 774 mmHg 56%
    18:00 +3°C° 0 mm 2 m/s 774 mmHg 58%
    19:00 +2°C° 0 mm 3 m/s 775 mmHg 60%
    20:00 +2°C° 0 mm 3 m/s 775 mmHg 59%
    21:00 +2°C° 0 mm 3 m/s 775 mmHg 58%
    22:00 +2°C° 0 mm 3 m/s 775 mmHg 57%
    23:00 +2°C° 0 mm 3 m/s 774 mmHg 58%

    21 Decembrie, Joi

    Timp Temperatura Precipitaţii Vânt Presiune Umiditate
    00:00 +2°C° 0 mm 3 m/s 774 mmHg 59%
    01:00 +3°C° 0 mm 3 m/s 774 mmHg 60%
    02:00 +3°C° 0 mm 4 m/s 774 mmHg 63%
    03:00 +4°C° 0 mm 4 m/s 774 mmHg 66%
    04:00 +4°C° 0 mm 4 m/s 773 mmHg 69%
    05:00 +4°C° 0 mm 4 m/s 773 mmHg 72%
    06:00 +5°C° 0 mm 4 m/s 773 mmHg 75%
    07:00 +5°C° 0 mm 4 m/s 773 mmHg 78%
    08:00 +6°C° 0 mm 4 m/s 774 mmHg 77%
    09:00 +7°C° 0 mm 4 m/s 774 mmHg 76%
    10:00 +8°C° 0 mm 4 m/s 774 mmHg 74%
    11:00 +10°C° 0 mm 4 m/s 774 mmHg 73%
    12:00 +11°C° 0 mm 4 m/s 773 mmHg 72%
    13:00 +12°C° 0 mm 4 m/s 773 mmHg 70%
    14:00 +11°C° 0 mm 4 m/s 773 mmHg 73%
    15:00 +10°C° 0 mm 4 m/s 773 mmHg 76%
    16:00 +9°C° 0 mm 3 m/s 773 mmHg 79%
    17:00 +9°C° 0 mm 3 m/s 773 mmHg 79%
    18:00 +8°C° 0 mm 3 m/s 773 mmHg 79%
    19:00 +8°C° 0 mm 3 m/s 773 mmHg 79%
    20:00 +8°C° 0 mm 3 m/s 773 mmHg 77%
    21:00 +8°C° 0 mm 3 m/s 773 mmHg 76%
    22:00 +9°C° 0 mm 3 m/s 773 mmHg 74%
    23:00 +8°C° 0 mm 3 m/s 773 mmHg 74%
    Arată mai mult

    XHprof extension not loaded